TimeMDT,TemperatureF,Dew PointF,Humidity,Sea Level PressureIn,VisibilityMPH,Wind Direction,Wind SpeedMPH,Gust SpeedMPH,PrecipitationIn,Events,Conditions,WindDirDegrees,DateUTC
12:53 AM,33.1,30.0,89,29.95,10.0,NNW,9.2,-,N/A,,Scattered Clouds,340,2013-04-12 06:53:00
1:53 AM,30.9,28.9,92,29.95,10.0,NNW,4.6,-,N/A,,Partly Cloudy,340,2013-04-12 07:53:00
2:53 AM,30.0,28.9,96,29.91,10.0,SSW,3.5,-,N/A,,Overcast,210,2013-04-12 08:53:00
3:53 AM,32.0,30.0,92,29.91,10.0,WNW,4.6,-,N/A,,Overcast,300,2013-04-12 09:53:00
4:53 AM,28.0,26.1,92,29.91,10.0,Calm,Calm,-,N/A,,Partly Cloudy,0,2013-04-12 10:53:00
5:53 AM,27.0,26.1,96,29.91,3.0,NNE,4.6,-,N/A,,Scattered Clouds,20,2013-04-12 11:53:00
6:53 AM,28.9,28.9,100,29.91,8.0,North,4.6,-,N/A,,Partly Cloudy,350,2013-04-12 12:53:00
7:53 AM,30.9,28.9,92,29.92,9.0,Calm,Calm,-,N/A,,Overcast,0,2013-04-12 13:53:00
8:53 AM,35.1,30.9,85,29.92,10.0,Calm,Calm,-,N/A,,Overcast,0,2013-04-12 14:53:00
9:53 AM,34.0,32.0,92,29.95,2.0,Calm,Calm,-,0.00,Snow,Light Snow,0,2013-04-12 15:53:00
10:11 AM,33.8,32.0,93,29.91,1.2,Calm,Calm,-,0.02,Snow,Light Snow,0,2013-04-12 16:11:00
10:24 AM,33.8,32.0,93,29.91,2.0,Calm,Calm,-,0.03,Snow,Light Snow,0,2013-04-12 16:24:00
10:29 AM,33.8,32.0,93,29.91,1.5,Calm,Calm,-,0.04,Snow,Light Snow,0,2013-04-12 16:29:00
10:40 AM,33.8,32.0,93,29.93,0.8,Calm,Calm,-,0.06,Snow,Light Snow,0,2013-04-12 16:40:00
10:42 AM,33.8,32.0,93,29.93,0.8,Calm,Calm,-,0.07,Snow,Light Snow,0,2013-04-12 16:42:00
10:46 AM,33.8,32.0,93,29.93,1.0,WNW,3.5,-,0.07,Snow,Light Snow,290,2013-04-12 16:46:00
10:53 AM,33.1,32.0,96,29.99,1.2,NW,4.6,-,0.08,Snow,Light Snow,310,2013-04-12 16:53:00
11:09 AM,33.8,32.0,93,29.94,1.5,NW,5.8,-,0.02,Snow,Light Snow,310,2013-04-12 17:09:00
11:19 AM,33.8,33.8,100,29.94,2.0,NW,8.1,-,0.03,Snow,Light Snow,310,2013-04-12 17:19:00
11:53 AM,35.1,33.1,92,30.01,6.0,NW,10.4,-,0.05,Snow,Light Snow,310,2013-04-12 17:53:00
12:36 PM,35.6,33.8,93,29.97,5.0,NNW,11.5,-,0.02,Snow,Light Snow,330,2013-04-12 18:36:00
12:53 PM,36.0,34.0,93,30.03,8.0,NNW,5.8,-,0.02,Snow,Light Snow,340,2013-04-12 18:53:00
1:00 PM,37.4,33.8,87,29.98,9.0,NNW,6.9,-,0.00,,Overcast,330,2013-04-12 19:00:00
1:53 PM,37.9,34.0,86,30.02,10.0,Calm,Calm,-,0.00,Rain,Light Rain,0,2013-04-12 19:53:00
2:53 PM,39.0,34.0,82,30.01,10.0,South,4.6,-,0.00,,Overcast,170,2013-04-12 20:53:00
3:10 PM,39.2,33.8,81,29.96,10.0,South,3.5,-,N/A,,Overcast,170,2013-04-12 21:10:00
3:23 PM,39.2,33.8,81,29.95,10.0,SSE,4.6,-,N/A,,Scattered Clouds,150,2013-04-12 21:23:00
3:53 PM,43.0,33.1,68,29.97,10.0,North,5.8,-,N/A,,Mostly Cloudy,350,2013-04-12 21:53:00
4:53 PM,44.1,28.9,55,29.98,10.0,NW,8.1,-,N/A,,Scattered Clouds,320,2013-04-12 22:53:00
5:53 PM,39.9,30.9,70,30.01,10.0,North,15.0,-,N/A,,Clear,10,2013-04-12 23:53:00
6:53 PM,36.0,30.0,79,30.00,10.0,North,17.3,-,N/A,,Unknown,10,2013-04-13 00:53:00
7:53 PM,34.0,28.0,79,30.00,10.0,Calm,Calm,-,N/A,,Clear,0,2013-04-13 01:53:00
8:53 PM,34.0,27.0,75,30.01,10.0,Calm,Calm,-,N/A,,Partly Cloudy,0,2013-04-13 02:53:00
9:53 PM,32.0,28.0,85,30.05,10.0,WSW,3.5,-,N/A,,Clear,250,2013-04-13 03:53:00
10:53 PM,32.0,28.0,85,30.04,10.0,SSW,3.5,-,N/A,,Clear,200,2013-04-13 04:53:00
11:53 PM,30.0,27.0,88,30.01,10.0,ESE,3.5,-,N/A,,Mostly Cloudy,120,2013-04-13 05:53:00